This demonstration page uses our WeatherBlox Daily Observations layout. Learn more.

Left ArrowRight Arrow

Hourly Observations for January 6, 2017

Temp ( °F °C ) Dew Point ( °F °C ) Humidity (%) Winds ( mph kmh ) Pressure ( in mb ) Visibility ( mi km ) Precip ( " mm )
12:52 am 00:52 Mostly Clear 10 -12.2 2 -16.7 69 69 NNW 13 20 30.27 1025 10 16 0.00 0.00
1:52 am 01:52 Clear 8 -13.3 0 -17.8 69 69 N 13 20 30.27 1025 10 16 0.00 0.00
2:52 am 02:52 Clear 8 -13.3 0 -17.8 69 69 NNW 12 19 30.29 1026 10 16 0.00 0.00
3:52 am 03:52 Clear 8 -13.3 0 -17.8 69 69 NW 9 15 30.32 1027 10 16 0.00 0.00
4:52 am 04:52 Clear 8 -13.3 0 -17.8 69 69 NNW 10 17 30.32 1027 10 16 0.00 0.00
5:52 am 05:52 Clear 7 -13.9 -1 -18.3 70 70 N 10 17 30.31 1027 10 16 0.00 0.00
6:52 am 06:52 Clear 7 -13.9 -1 -18.3 70 70 N 7 11 30.33 1027 10 16 0.00 0.00
7:52 am 07:52 Sunny 6 -14.4 -1 -18.3 73 73 N 7 11 30.33 1027 10 16 0.00 0.00
8:52 am 08:52 Sunny 8 -13.3 0 -17.8 69 69 NNW 7 11 30.37 1029 10 16 0.00 0.00
9:52 am 09:52 Sunny 10 -12.2 1 -17.2 67 67 N 6 9 30.39 1029 10 16 0.00 0.00
10:52 am 10:52 Sunny 11 -11.7 1 -17.2 64 64 NNW 10 17 30.40 1030 10 16 0.00 0.00
11:52 am 11:52 Sunny 12 -11.1 1 -17.2 61 61 NW 8 13 30.37 1029 10 16 0.00 0.00
12:52 pm 12:52 Sunny 14 -10 1 -17.2 56 56 NW 10 17 30.37 1028 10 16 0.00 0.00
1:52 pm 13:52 Sunny 13 -10.6 0 -17.8 56 56 N 7 11 30.36 1028 10 16 0.00 0.00
2:52 pm 14:52 Sunny 14 -10 2 -16.7 58 58 NNW 10 17 30.37 1028 10 16 0.00 0.00
3:52 pm 15:52 Sunny 14 -10 3 -16.1 61 61 NNW 9 15 30.39 1029 10 16 0.00 0.00
4:52 pm 16:52 Mostly Cloudy 14 -10 3 -16.1 61 61 NW 8 13 30.40 1029 10 16 0.00 0.00
5:52 pm 17:52 Clear 14 -10 4 -15.6 64 64 NW 9 15 30.43 1031 10 16 0.00 0.00
6:52 pm 18:52 Clear 11 -11.7 2 -16.7 67 67 NNW 9 15 30.46 1031 10 16 0.00 0.00
7:52 pm 19:52 Clear 10 -12.2 1 -17.2 67 67 NW 8 13 30.48 1032 10 16 0.00 0.00
8:52 pm 20:52 Clear 9 -12.8 1 -17.2 70 70 NW 5 7 30.50 1033 10 16 0.00 0.00
9:52 pm 21:52 Clear 9 -12.8 0 -17.8 66 66 W 3 6 30.52 1034 10 16 0.00 0.00
10:52 pm 22:52 Clear 8 -13.3 0 -17.8 69 69 Calm 30.53 1034 10 16 0.00 0.00
11:52 pm 23:52 Clear 7 -13.9 -1 -18.3 70 70 WNW 5 7 30.54 1034 10 16 0.00 0.00

Powered by AerisWeather